Погода в Ильинке

Россия / Тюменская область     55°26′52″N   69°19′23″E
темп.,
°C
ветер,
м/с
пор.,
м/с
влажн.,
%
обл.,
%
осадки,
мм/ч
давл.,
гПа
погр.,
м
25 июня, сб
сб2523:00+18зсз349112 0.8 100659
02:00+16ссз2293100 0.0 100614
05:00+15юз1296100 5.3 100545
08:00+16з2493100 0.1 1005275
11:00+17сз3490100 0.2 1005341
14:00+17с1188100 0.4 1003311
17:00+17с338890 1.5 1001335
20:00+15всв239298 0.2 99984
26 июня, вс
вс2623:00+14сз228819 0.2 99939
02:00+11зсз34900 0.0 99859
05:00+12зюз359411 0.0 997116
08:00+15зсз47875 0.1 998415
11:00+19зсз676830 2.1 9981348
14:00+18зсз787186 1.4 9991282
17:00+14зсз797415 1.7 1001696
20:00+11зсз5976100 0.1 1002777
27 июня, пн
пн2723:00+10зсз4876100 0.1 1002614
02:00+10зсз4782100 0.0 1002632
05:00+8зсз5987100 0.1 1003708
08:00+9з61088100 0.1 1003749
11:00+9зсз71189100 0.3 1004786
14:00+12зсз71078100 0.1 10051094
17:00+12зсз61079100 0.1 10061128
20:00+12зсз4980100 0.1 1007774
28 июня, вт
вт2823:00+10зюз378978 0.1 1007202
02:00+11зюз498789 0.1 1006318
05:00+10ююз3986100 0.1 1005288
08:00+11ююз61187100 0.2 1004514
11:00+11ю61294100 1.8 1004504
14:00+13ююз61192100 0.8 1002647
17:00+13ююз3794100 1.3 1001429
20:00+13з1195100 0.1 99930
29 июня, ср
ср2923:00+11с3498100 0.2 997111
02:00+10сз71198100 3.6 994415
05:00+8сз101796100 9.2 992820
08:00+8сз111995100 8.6 9931148
11:00+7зсз132194100 18.0 9941227
14:00+7зсз132094100 9.4 9961267
17:00+9зсз111794100 14.6 997965
20:00+8зсз101695100 2.9 999657